SCP
0 0 0 0 0 0 0 0 0 0 0 0 0 0 0 0 0 0 0 1 1 1 1 1 1 1 1 2 2 2 2 2 2 2 2 2 2 2
0 0 0 0 0 0 0 0 0 0 0 0 0 0 0 0 0 0 0 1 1 1 1 1 1 1 1 1 2 2 2 2 2 2 2 2 2 2
0 0 0 0 0 0 0 0 0 0 0 0 0 0 0 0 0 0 0 0 1 1 1 1 1 1 1 1 1 1 1 1 1 2 2 2 2 2
0 0 0 0 0 0 0 0 0 0 0 0 0 0 0 0 0 0 0 0 1 1 1 1 1 1 1 1 1 1 1 1 1 1 2 2 2 3
0 0 0 0 0 0 0 0 0 0 0 0 0 0 0 0 0 0 0 0 1 1 1 1 1 0 0 0 0 0 1 1 1 1 1 2 2 2
0 0 0 0 0 0 0 0 0 0 0 0 0 0 0 0 0 0 0 0 1 1 1 1 1 0 0 0 0 0 0 0 0 1 1 1 1 1
0 0 0 0 0 0 0 0 0 0 0 0 0 0 0 0 0 0 0 0 0 1 1 1 1 0 0 0 0 0 0 0 0 0 0 0 1 1
0 0 0 0 0 0 0 0 0 0 0 0 0 0 0 0 0 0 0 0 0 0 0 0 0 0 0 0 0 0 0 0 0 0 0 0 0 0
0 0 0 0 0 0 0 0 0 0 0 0 0 0 0 0 0 0 0 0 0 0 0 0 0 0 0 0 0 0 0 0 0 0 0 0 0 0
0 0 0 0 0 0 0 0 0 0 0 0 0 0 0 0 0 0 0 0 0 0 0 0 0 0 0 0 0 0 0 0 0 0 0 0 0 0
0 0 0 0 0 0 0 0 0 0 0 0 0 0 0 0 0 0 0 0 0 0 0 0 0 0 0 0 0 0 0 0 0 0 0 0 0 0
0 0 0 0 0 0 0 0 0 0 0 0 0 0 0 0 0 0 0 0 0 0 0 0 0 0 0 0 0 0 0 0 0 0 0 0 0 0
0 0 0 0 0 0 0 0 0 0 0 0 0 0 0 0 0 0 0 0 0 0 0 0 0 0 0 0 0 0 0 0 0 0 0 0 0 0
0 0 0 0 0 0 0 0 0 0 0 0 0 0 0 0 0 0 0 0 0 0 0 0 0 0 0 0 0 0 0 0 0 0 0 0 0 0
0 0 0 0 0 0 0 0 0 0 0 0 0 0 0 0 0 0 0 0 0 0 0 0 0 0 0 0 0 0 0 0 0 0 0 0 0 0
0 0 0 0 0 0 0 0 0 0 0 0 0 0 0 0 0 0 0 0 0 0 0 0 0 0 0 0 0 0 0 0 0 0 0 0 0 0
0 0 0 0 0 0 0 0 0 0 0 0 0 0 0 0 0 0 0 0 0 0 0 0 0 0 0 0 0 0 0 0 0 0 0 0 0 0
0 0 -0 -0 0 0 0 0 0 0 0 0 0 0 0 0 0 0 0 0 0 0 0 0 0 0 0 0 0 0 0 0 0 0 0 0 0 0
0 0 0 0 0 0 0 0 0 0 0 0 0 0 0 0 0 0 0 0 0 0 0 0 0 0 0 0 0 0 0 0 0 0 0 0 0 0
0 0 0 0 0 0 0 0 0 0 0 0 0 0 0 0 0 0 0 0 0 0 0 0 0 0 0 0 0 0 0 0 0 0 0 0 0 0
0 0 0 0 0 0 0 0 0 0 0 0 0 0 0 0 0 0 0 0 0 0 0 0 0 0 0 0 0 0 0 0 0 0 0 0 0 0
0 0 0 0 0 0 0 0 0 0 0 0 0 0 0 0 0 0 0 0 0 0 0 0 0 0 0 0 0 0 0 0 0 0 0 0 0 0
0 0 0 0 0 0 0 0 0 0 0 0 0 0 0 0 0 0 0 0 0 0 0 0 0 0 0 0 0 0 0 0 0 0 0 0 0 0
Wind_Speed
9 10 9 7 7 7 7 8 8 10 10 6 4 5 7 7 10 9 9 12 10 6 8 9 10 10 11 13 15 18 21 20 20 20 20 20 19 18
9 10 10 7 7 6 6 7 8 9 10 6 6 8 9 9 13 9 9 15 11 7 6 8 9 9 9 10 12 15 17 19 20 21 22 21 19 18
11 11 11 10 7 6 6 7 8 8 11 10 7 7 8 8 8 7 7 7 6 7 5 6 8 9 9 9 10 12 14 18 20 21 21 21 20 19
12 11 11 9 9 7 7 8 8 8 9 12 8 6 7 7 7 8 7 6 5 6 6 5 7 8 9 9 10 11 12 15 18 20 21 22 21 20
11 10 10 9 9 8 8 7 7 8 8 9 8 6 5 5 6 6 6 5 5 4 5 5 6 7 9 9 10 11 12 14 17 19 20 21 22 21
8 8 8 8 8 8 7 7 7 7 7 7 6 5 4 4 3 3 4 3 3 2 2 1 3 5 8 9 10 11 12 13 15 17 18 19 20 21
6 7 7 9 11 9 7 7 7 6 6 5 5 5 4 3 2 2 3 3 3 2 1 0 1 1 2 6 9 11 12 13 14 15 16 18 19 21
6 7 7 7 10 14 15 14 13 9 7 5 4 5 5 5 4 3 3 2 2 1 1 1 1 1 2 2 6 10 13 14 14 15 16 17 18 20
7 7 6 8 8 6 11 14 14 17 16 8 6 7 7 7 6 5 4 3 3 1 1 1 1 1 0 1 6 10 12 14 14 15 16 17 17 19
10 8 7 7 9 9 8 8 8 10 13 9 7 7 8 8 6 5 5 5 4 2 1 2 2 2 3 3 2 8 11 14 16 17 19 21 22 23
12 12 11 9 18 19 11 9 9 9 13 17 16 15 17 17 12 5 3 3 2 0 1 2 3 3 4 5 6 9 12 16 19 22 25 27 29 27
10 12 18 18 21 20 10 9 10 9 10 11 12 14 12 13 16 8 5 3 1 1 0 2 3 4 4 5 6 6 10 17 23 26 28 29 28 18
9 9 11 22 22 22 17 11 15 12 9 9 9 9 9 8 9 8 6 3 2 1 1 1 3 3 5 4 5 8 8 9 12 16 21 25 24 19
9 8 11 21 22 22 17 19 21 16 9 8 9 9 10 10 9 9 9 6 3 2 2 0 3 4 7 7 6 5 8 8 9 11 11 19 22 24
8 16 18 20 18 15 21 23 17 11 10 10 10 10 9 10 9 9 9 7 6 7 6 3 3 4 5 9 9 6 7 8 8 10 10 9 9 10
8 13 17 18 15 16 16 13 11 11 10 9 9 9 9 9 9 9 8 8 6 7 11 11 8 7 8 10 12 11 8 7 7 9 11 10 9 8
7 6 7 8 9 9 9 9 9 10 10 10 9 10 10 10 10 9 9 9 8 7 8 9 12 14 14 10 10 11 11 11 10 9 10 11 8 7
8 5 6 7 8 8 8 9 9 9 9 9 9 9 10 10 10 9 9 9 9 9 8 6 5 8 10 14 15 9 10 10 10 9 9 11 8 6
4 4 4 5 5 6 6 6 6 7 7 8 8 9 9 9 9 10 10 9 9 9 9 8 6 5 11 9 10 13 8 10 10 9 7 7 7 5
2 2 3 3 3 4 4 4 5 6 6 6 7 8 8 8 9 9 9 10 9 9 10 11 10 8 8 9 7 7 12 8 8 9 8 7 7 7
3 3 3 3 2 3 3 3 4 4 5 5 6 6 7 7 8 8 8 14 11 10 10 10 10 11 8 8 11 10 10 13 10 7 7 7 6 4
4 4 3 3 2 2 2 2 3 3 4 4 4 5 5 5 6 8 8 8 8 8 9 8 9 9 9 11 12 11 9 8 12 15 12 7 4 5
5 5 4 4 3 2 2 2 2 2 2 2 3 4 4 4 4 5 6 7 7 8 8 8 8 9 10 10 10 9 10 8 6 7 7 11 12 10
Wind_Direction
302 302 298 295 294 290 291 292 291 297 300 300 309 338 333 325 324 327 327 313 294 247 208 195 193 197 202 205 204 201 198 193 187 186 190 191 191 189
301 302 300 297 296 291 289 288 284 285 286 292 304 308 311 311 311 318 319 316 297 274 217 191 187 191 196 200 201 201 199 194 189 189 191 192 192 189
304 303 301 301 296 295 292 288 285 282 283 290 289 293 295 299 305 309 307 305 294 284 247 199 188 190 195 198 199 200 199 194 188 190 193 193 195 193
302 302 301 303 301 298 294 293 291 286 285 290 292 287 284 291 295 294 297 295 289 283 260 219 196 194 197 201 203 201 199 194 190 191 193 193 198 196
297 299 299 303 303 303 299 298 295 293 290 289 290 287 279 278 282 281 281 285 286 276 256 226 206 201 201 203 205 205 201 198 195 194 195 194 193 193
297 300 301 302 304 303 306 311 310 306 301 294 292 292 285 275 272 273 279 282 278 274 254 227 215 213 210 208 207 207 205 203 200 198 196 192 187 183
313 313 314 327 333 337 342 342 337 328 316 307 307 312 318 317 306 301 279 284 269 238 209 191 167 191 206 213 210 206 204 204 203 199 194 188 181 176
338 332 328 339 354 357 360 8 8 357 344 333 328 330 327 324 315 304 293 272 264 244 162 157 138 185 207 206 206 202 201 198 195 191 185 181 176 169
347 341 351 6 20 9 9 13 8 10 14 6 350 346 333 334 325 303 291 279 257 279 142 158 115 142 68 230 205 199 192 186 180 174 167 161 158 153
6 6 10 8 33 34 16 12 8 6 7 7 360 350 344 340 328 298 285 279 272 278 225 142 110 86 52 39 156 178 173 166 158 151 145 139 133 129
15 17 22 25 32 35 21 11 11 5 3 8 11 9 5 0 3 343 307 249 226 244 357 129 115 83 48 34 51 102 127 133 133 131 128 123 120 114
14 12 20 28 27 31 23 10 14 4 357 357 1 2 360 356 5 4 340 304 265 198 314 116 127 118 86 30 30 52 87 102 111 116 118 118 116 112
17 12 14 25 25 26 25 18 18 14 357 358 358 358 359 357 354 352 346 320 285 270 292 102 113 96 109 101 45 38 60 80 92 100 104 108 110 113
11 9 15 24 24 23 23 20 19 17 6 5 6 4 0 355 348 345 344 340 338 311 311 43 132 149 131 116 99 67 58 61 81 88 91 98 98 102
14 19 22 25 23 18 18 20 17 13 10 8 6 1 354 348 348 349 350 352 17 28 19 28 109 133 127 126 124 122 95 67 69 86 85 82 89 99
16 14 20 22 24 19 18 15 12 13 14 6 360 355 354 358 4 2 1 1 19 27 30 40 53 88 107 112 122 122 113 109 96 92 93 84 74 76
20 11 12 13 15 13 12 12 11 10 10 6 3 2 4 6 8 7 12 20 31 30 33 46 61 68 64 84 108 111 111 109 111 109 102 92 75 76
26 11 13 12 12 11 9 8 9 11 7 6 7 6 6 8 10 12 18 25 31 29 28 31 78 95 80 51 44 95 107 108 108 104 105 105 95 75
20 356 356 358 359 360 360 360 1 1 2 7 10 8 7 10 14 18 20 24 29 30 29 25 27 90 106 93 39 38 89 105 105 97 90 98 108 105
318 312 318 327 334 342 347 351 352 356 2 6 8 9 10 14 18 19 23 29 29 32 37 37 39 51 85 103 100 62 61 84 100 102 100 97 92 94
285 284 284 294 304 318 330 339 345 352 359 0 7 9 10 16 20 21 25 32 37 36 41 39 40 57 74 86 90 82 66 69 83 98 108 105 100 92
268 265 265 265 270 281 301 322 339 348 355 1 2 6 8 17 21 23 25 29 33 36 42 42 43 56 67 85 93 92 83 73 75 80 80 92 124 139
264 257 252 251 248 244 250 275 302 323 338 347 356 2 8 16 17 23 26 31 36 38 42 48 52 61 68 78 87 88 85 81 78 74 61 68 85 98